Location: Lafig�re
(44.4503°N, 4.0357°E)
Time: 17:42:22
(UTC+00:00)

S-56A Canister/Altair - Pass Details

Date: 28 January 2021
Orbit: 631 x 2501 km, 38.9° (Epoch: 04 March)

Event Time Altitude Azimuth Distance (km) Brightness Sun altitude
Rises 04:58:59 0° 269° (W) 2,914 - -22.8°
Reaches altitude 10° 05:01:25 10° 256° (WSW) 2,029 - -22.4°
Exits shadow 05:04:44 27° 209° (SSW) 1,302 8.5 -21.8°
Maximum altitude 05:05:16 28° 197° (SSW) 1,300 8.5 -21.7°
Drops below altitude 10° 05:09:48 10° 139° (SE) 2,411 10.7 -20.9°
Sets 05:12:59 0° 129° (SE) 3,588 11.9 -20.3°
